Location: Montjuich
(41.3670°N, 2.1670°E)
Time: 04:07:21
(UTC+02:00)

ISS - Visible Passes

Search period start: 25 June 2021 00:00
Search period end: 05 July 2021 00:00
Orbit: 419 x 422 km, 51.6° (Epoch: 24 June)

Date Brightness Start Highest point End Pass type
(mag) Time Alt. Az. Time Alt. Az. Time Alt. Az.
25 Jun -2.0 05:45:58 10° SSW 05:48:46 25° SE 05:51:37 10° ENE visible
26 Jun -1.4 04:59:36 10° SSE 05:01:39 15° SE 05:03:40 10° E visible
28 Jun -3.1 05:01:13 20° SSW 05:03:13 43° SE 05:06:27 10° ENE visible
29 Jun -2.3 04:15:23 25° SE 04:15:43 25° SE 04:18:33 10° ENE visible
30 Jun -1.1 03:29:24 13° ESE 03:29:24 13° ESE 03:30:10 10° E visible
30 Jun -3.5 05:02:20 19° WSW 05:04:35 64° NNW 05:07:56 10° NE visible
01 Jul -3.8 04:16:11 58° SSW 04:16:44 76° SE 04:20:06 10° ENE visible
02 Jul -2.3 03:29:53 31° E 03:29:53 31° E 03:32:02 10° ENE visible
02 Jul -2.1 05:02:48 11° W 05:05:41 29° NNW 05:08:42 10° NE visible
03 Jul -0.9 02:43:27 11° E 02:43:27 11° E 02:43:42 10° ENE visible
03 Jul -2.8 04:16:21 29° WNW 04:17:30 41° NNW 04:20:45 10° NE visible
04 Jul -3.2 03:29:45 57° NNE 03:29:45 57° NNE 03:32:39 10° NE visible
04 Jul -1.3 05:04:06 10° WNW 05:06:32 18° NNW 05:08:59 10° NNE visible
